Home   Weather   Holguín   Past weeks

Flag for Cuba Past Weather in Holguín, Cuba — Yesterday and Last 2 Weeks

Now
86 °F

Passing clouds.


Feels Like: 84 °F
Forecast: 64 / 87 °F
Wind: 17 mph from Southwest

Location: Holguin Civ / Mil

Current Time: Jan 23, 2017 at 2:12:48 pm

Latest Report: Jan 23, 2017 at 12:50 pm


Visibility: N/A

Pressure: 29.77 "Hg

Humidity: 33%

Dew Point: 54 °F

Location of HolguínLocation

Past Weather in Holguín — Graph

°F

Holguín Temperature Yesterday

Maximum temperature yesterday: 86 °F (at 1:50 pm)
Minimum temperature yesterday: 59 °F (at 5:51 am)
Average temperature yesterday: 72 °F

High & Low Weather Summary for the Past Weeks

 TemperatureHumidityPressure
High86 °F (Jan 21, 3:51 pm)94% (Jan 12, 4:51 am)30.30 "Hg (Jan 12, 4:51 am)
Low57 °F (Jan 19, 5:50 am)25% (Jan 18, 3:50 pm)29.77 "Hg (Jan 23, 12:50 pm)
Average72 °F70%30.08 "Hg
* Reported Jan 8 12:51 pm — Jan 23 12:50 pm, Holguín, Weather by CustomWeather, © 2017

Note: Actual official high and low records may vary slightly from our data, if they occured in-between our weather recording intervals... More about our weather records

Advertising

Holguín Weather History for the Previous 24 Hours

Scroll right to see more
 ConditionsComfort  
Time TempWeatherWind HumidityBarometerVisibility
12:50 pm
Mon, Jan 23
86 °FPassing clouds.17 mph33%29.77 "HgN/A
11:50 am86 °FScattered clouds.15 mph35%29.80 "HgN/A
10:55 am81 °FScattered clouds.15 mph45%29.89 "Hg6 mi
8:50 am73 °FScattered clouds.3 mph74%29.89 "Hg6 mi
7:50 am66 °FScattered clouds.6 mph88%29.86 "Hg6 mi
6:50 am66 °FFog.5 mph88%29.83 "Hg4 mi
4:50 am66 °FFog.6 mph88%29.83 "Hg5 mi
3:50 am63 °FFog.3 mph88%29.83 "Hg5 mi
2:50 am63 °FFog.1 mph88%29.86 "Hg5 mi
1:51 am63 °FClear.2 mph88%29.86 "Hg5 mi
12:50 am64 °FFog.No wind88%29.89 "Hg3 mi
11:50 pm
Sun, Jan 22
68 °FClear.5 mph83%29.89 "Hg10 mi
10:50 pm68 °FClear.6 mph78%29.89 "Hg10 mi
9:50 pm68 °FClear.7 mph73%29.89 "Hg10 mi
8:50 pm70 °FClear.6 mph64%29.89 "Hg10 mi
7:50 pm72 °FClear.5 mph57%29.89 "Hg10 mi
6:50 pm75 °FClear.5 mph47%29.89 "Hg10 mi
5:50 pm81 °FPassing clouds.8 mph34%29.86 "HgN/A
4:50 pm84 °FPassing clouds.8 mph33%29.86 "HgN/A
3:50 pm86 °FScattered clouds.8 mph31%29.86 "HgN/A
2:50 pm86 °FScattered clouds.7 mph31%29.86 "HgN/A
Weather by CustomWeather, © 2017

See weather overviewHow to use our weather pages